This demonstration page uses our WeatherBlox Daily Observations layout. Learn more.

Left ArrowRight Arrow

Hourly Observations for December 14, 2015

Temp ( °F °C ) Dew Point ( °F °C ) Humidity (%) Winds ( mph kmh ) Pressure ( in mb ) Visibility ( mi km ) Precip ( " mm )
3:58 am 03:58 Cloudy with Heavy Rain 38 3.6 38 3.6 100 100 NW 12 19 29.23 990 3 5 0.20 5.08
4:58 am 04:58 Cloudy with Light Snow 34 1.1 34 1 99 99 NW 10 17 29.25 991 2 2 0.18 4.57
5:58 am 05:58 Cloudy with Light Snow 32 0.2 32 0.1 99 99 WNW 10 17 29.26 991 1 2 0.08 2.03
6:58 am 06:58 Cloudy with Light Snow 32 0 32 0 100 100 WNW 14 22 29.28 992 6 10 0.01 0.25
7:02 am 07:02 Cloudy 32 0 32 0 100 100 WNW 13 20 29.32 993 7 11 0.00 0.00
7:46 am 07:46 Cloudy with Light Rain 36 2 36 2 100 100 NW 16 26 29.29 992 10 16 0.00 0.00
7:53 am 07:53 Cloudy with Light Rain 36 2 36 2 100 100 NW 17 28 29.32 993 10 16 0.00 0.00
7:58 am 07:58 Cloudy with Light Rain 35 1.6 35 1.6 100 100 NW 15 24 29.31 993 10 16 0.14 3.56
8:58 am 08:58 Cloudy with Rain 35 1.7 35 1.7 100 100 NW 18 30 29.34 994 6 10 0.18 4.57
9:58 am 09:58 Cloudy with Light Rain 36 2 36 2 100 100 NW 22 35 29.41 996 10 16 0.00 0.00
10:07 am 10:07 Cloudy 36 2 36 2 100 100 NW 23 37 29.44 997 10 16 0.00 0.00
10:14 am 10:14 Cloudy 36 2 36 2 100 100 NW 21 33 29.44 997 10 16 0.00 0.00
10:17 am 10:17 Cloudy with Drizzle 36 2 36 2 100 100 NW 22 35 29.44 997 10 16 0.00 0.00
10:20 am 10:20 Cloudy with Drizzle 36 2 36 2 100 100 NW 17 28 29.44 997 8 13 0.00 0.00
10:30 am 10:30 Cloudy with Light Rain 36 2 36 2 100 100 NW 18 30 29.44 997 5 8 0.00 0.00
10:58 am 10:58 Cloudy 36 2.4 36 2.4 100 100 NW 17 28 29.44 997 9 14 0.01 0.25
11:15 am 11:15 Cloudy with Light Rain 36 2 36 2 100 100 NW 18 30 29.44 997 4 6 0.00 0.00
11:39 am 11:39 Cloudy 37 3 37 3 100 100 NW 17 28 29.44 997 10 16 0.00 0.00
11:58 am 11:58 Cloudy 37 2.7 37 2.7 100 100 WNW 17 28 29.50 999 10 16 0.00 0.03
12:30 pm 12:30 Cloudy 37 3 37 3 100 100 NW 16 26 29.53 1000 10 16 0.00 0.00
12:57 pm 12:57 Cloudy with Light Rain 37 3 37 3 100 100 NW 12 19 29.53 1000 10 16 0.00 0.00
12:58 pm 12:58 Cloudy with Light Rain 37 3 37 3 100 100 NW 13 20 29.53 1000 10 16 0.00 0.03
1:58 pm 13:58 Cloudy 38 3.3 38 3.3 100 100 WNW 16 26 29.56 1001 10 16 0.00 0.03
2:58 pm 14:58 Cloudy 38 3.3 36 2.4 94 94 WNW 13 20 29.62 1003 10 16 0.00 0.00
3:58 pm 15:58 Cloudy 38 3.6 36 2.4 92 92 NW 13 20 29.60 1002 10 16 0.00 0.00
4:58 pm 16:58 Cloudy 38 3.5 36 2.3 92 92 NW 12 19 29.67 1005 10 16 0.00 0.00
5:50 pm 17:50 Cloudy 37 3 36 2 93 93 WNW 14 22 29.71 1006 10 16 0.00 0.00
5:58 pm 17:58 Cloudy 38 3.2 36 2.2 93 93 WNW 12 19 29.69 1005 10 16 0.00 0.00
6:06 pm 18:06 Cloudy 37 3 36 2 93 93 NW 13 20 29.71 1006 10 16 0.00 0.00
6:15 pm 18:15 Cloudy with Drizzle 37 3 36 2 93 93 WNW 12 19 29.71 1006 5 8 0.00 0.00
6:40 pm 18:40 Cloudy with Drizzle 37 3 37 3 100 100 WNW 9 15 29.74 1007 3 4 0.00 0.00
6:50 pm 18:50 Cloudy with Drizzle 37 3 37 3 100 100 WNW 7 11 29.74 1007 3 5 0.00 0.00
6:58 pm 18:58 Cloudy with Drizzle 37 3 37 3 100 100 WNW 8 13 29.72 1006 4 6 0.00 0.03
7:07 pm 19:07 Cloudy with Drizzle 37 3 37 3 100 100 WNW 7 11 29.74 1007 5 8 0.00 0.00
7:13 pm 19:13 Cloudy 37 3 37 3 100 100 WNW 7 11 29.74 1007 7 11 0.00 0.00
7:42 pm 19:42 Cloudy 37 3 37 3 100 100 NW 6 9 29.77 1008 10 16 0.00 0.00
7:58 pm 19:58 Cloudy with Drizzle 37 2.9 37 2.8 99 99 NW 6 9 29.74 1007 5 8 0.00 0.03
8:05 pm 20:05 Cloudy 37 3 37 3 100 100 NW 5 7 29.77 1008 8 13 0.00 0.00
8:24 pm 20:24 Cloudy 37 3 37 3 100 100 N 5 7 29.77 1008 10 16 0.00 0.00
8:38 pm 20:38 Cloudy 37 3 37 3 100 100 N 7 11 29.77 1008 10 16 0.00 0.00
8:58 pm 20:58 Cloudy 38 3.1 36 2.2 94 94 NNW 3 6 29.73 1007 10 16 0.00 0.00
9:20 pm 21:20 Cloudy 37 3 36 2 93 93 N 5 7 29.77 1008 10 16 0.00 0.00
9:58 pm 21:58 Cloudy 37 2.8 36 2.4 97 97 N 6 9 29.75 1008 10 16 0.00 0.00
10:58 pm 22:58 Cloudy 37 2.8 36 2.4 97 97 N 1 2 29.78 1008 10 16 0.00 0.00
11:44 pm 23:44 Cloudy 37 3 36 2 93 93 NNE 3 6 29.77 1008 10 16 0.00 0.00
11:53 pm 23:53 Cloudy 37 3 36 2 93 93 NNE 3 6 29.77 1008 10 16 0.00 0.00
11:58 pm 23:58 Cloudy 37 2.6 36 2.3 98 98 NNE 2 4 29.78 1009 10 16 0.00 0.00

Powered by AerisWeather